INTELSAT 25 (IS-25)

Last updated on Sat Apr 13 2024 01:02:37 GMT+0100 (British Summer Time)

1 33153U 08034A 24103.37130569 -.00000232 00000+0 00000+0 0 9990 2 33153 0.6491 89.7828 0002955 293.0542 280.3821 1.00272514 57711
UTC large
Height (km)
Speed (km/s)
/
Latitude / Longitude
Inclination (degrees)
Orbital Period (minutes)
Azimuth
Elevation
Range (km)
Doppler Factor

Next 0 passes for location: London (51.5072 / 0.1276)

Sorry there are no passes over London.